If you wish to contribute or participate in the discussions about articles you are invited to join SKYbrary as a registered user

 Actions

Rota Naval Station Airport

From SKYbrary Wiki

LERT /
Revision as of 12:45, 24 February 2015 by Timo.Kouwenhoven (talk | contribs) (LE CSV import)
(diff) ← Older revision | Latest revision (diff) | Newer revision → (diff)
Airport
ICAO: LERT
Summary
Name Rota Naval Station Airport
Region Europe
Territory Spain ES.gif
Location , Andalucia
Serving Rota
Elevation 26.213 m
86 ft
86 ft26.213 m
Type medium airport
Coordinates 36° 38' 42.76" N, 6° 20' 58.05" W
Runways
Designator Length Width Surface ROPS
10/28 3689 m12,103.018 ft
61 m200.131 ft
ASP yes/yes


METAR
Observation LERT 252300Z 29007KT CAVOK 15/13 Q1024 NOSIG
Station Rota
Date/Time 25 February 2020 23:00:00
Wind direction 290°
Wind speed 07 kts
Lowest cloud amount clouds and visibility OK
Temperature 15°C
Dew point 13°C
Humidity 87%
QNH 1024 hPa
Weather condition n/a